Weather in Torre del Mar

Spain     36°44′42″N   4°05′13″W
temp.,
°C
wind,
m/s
gust,
m/s
humid.,
%
clouds,
%
prec.,
mm/h
press.,
hPa
HPBL,
m
9 may, sun
sun923:00+17s2278100 0.3 101658
02:00+19ene7855100 0.4 1013145
05:00+19ese0160100 0.3 101012
08:00+17e0180100 1.2 101023
11:00+19wsw366656 0.4 1012893
14:00+21sw88531 0.6 1011936
17:00+21wsw79471 0.0 10101189
20:00+19w466864 0.0 1009483
10 may, mon
mon1023:00+17wnw45723 0.0 101163
02:00+15nw3469100 0.0 101164
05:00+15nnw336694 0.0 101163
08:00+14nnw34670 0.0 101286
11:00+19w57380 0.0 10131530
14:00+20wsw884334 0.0 10122056
17:00+20wsw774834 0.0 10121547
20:00+18w565583 0.3 1013945
11 may, tue
tue1123:00+14nw58640 0.1 1016219
02:00+13nw48690 0.1 1018217
05:00+11nnw46710 0.0 1018141
08:00+11nnw4473100 0.0 1019133
11:00+16nw3440100 0.0 10201195
14:00+20wnw44290 0.0 10191332
17:00+22w55320 0.0 10181405
20:00+19w45440 0.0 1018402
12 may, wed
wed1223:00+16n33450 0.0 102034
02:00+15n32430 0.0 102021
05:00+14n33470 0.0 101933
08:00+14n22550 0.0 101950
11:00+21wsw33395 0.0 1018855
14:00+24wsw563751 0.0 10171602
17:00+24w784034 0.0 10161665
20:00+22wnw684999 0.0 1016992
13 may, thu
thu1323:00+17nw45625 0.0 101869
02:00+16nnw44730 0.0 101773
05:00+15nnw44721 0.0 101663
08:00+15nnw33655 0.0 101671
11:00+21w12370 0.0 1016915
14:00+24sw55345 0.0 10141478
17:00+24wsw67368 0.0 10121365
20:00+23nw573976 0.0 10121213